Weather History for Metropolis, IL

Change the Weather History Date:

Friday, April 12, 2013

  Actual Average (KPAH) Record (KPAH)
Temperature  
Mean Temperature 48 °F 57 °F  
Max Temperature 60 °F 68 °F 84 °F (1977)
Min Temperature 36 °F 45 °F 26 °F (1990)
Degree Days  
Heating Degree Days 17 9  
Month to date heating degree days 127  
Since 1 July heating degree days 3946  
Cooling Degree Days 0 1  
Month to date cooling degree days 12  
Year to date cooling degree days 19  
Moisture  
Dew Point 35 °F    
Average Humidity 62    
Maximum Humidity 95    
Minimum Humidity 34    
Precipitation  
Precipitation 0.00 in 0.15 in 1.88 in (1966)
Month to date precipitation 1.74  
Year to date precipitation 13.26  
Snow  
Snow 0.00 in 0.00 in T in (2005)
Month to date snowfall 0.0  
Since 1 July snowfall 9.1  
Snow Depth -    
Sea Level Pressure  
Sea Level Pressure 29.87 in    
Wind  
Wind Speed 7 mph (West)    
Max Wind Speed 18 mph    
Max Gust Speed 28 mph    
Visibility 10 miles    
Events      
T = Trace of Precipitation, MM = Missing Value Source: NWS Daily Summary

Daily Weather History Graph

Daily Weather History Graph

Search for Another Location

Airport:

Trip Planner

Search our weather history database for the weather conditions in past years. The results will help you decide how hot, cold, wet, or windy it might be!

Date:

Astronomy

Apr. 12, 2013 Rise Set
Actual Time 6:24 AM CDT 7:27 PM CDT
Civil Twilight 5:57 AM CDT 7:54 PM CDT
Nautical Twilight 5:25 AM CDT 8:26 PM CDT
Astronomical Twilight 4:53 AM CDT 8:59 PM CDT
Moon 7:37 AM CDT (4/12) 9:54 PM CDT (4/12)
Length of Visible Light 13h 56m
Length of Day
13h 03m
Waxing Crescent, 5% of the Moon is Illuminated
Apr 12
Waxing Crescent
Apr 18
First Quarter
Apr 25
Full
May 2
Last Quarter
May 9
New

Hourly Weather History & Observations

Time (CDT) Temp. Windchill Dew Point Humidity Pressure Visibility Wind Dir Wind Speed Gust Speed Precip Events Conditions
12:15 AM 43.7 °F 39.7 °F 34.7 °F 71% 29.78 in 10.0 mi WNW 6.9 mph - N/A   Clear
12:35 AM 43.2 °F 37.9 °F 34.5 °F 72% 29.78 in 10.0 mi WNW 9.2 mph - N/A   Clear
12:55 AM 42.4 °F 39.6 °F 34.3 °F 73% 29.79 in 10.0 mi NW 4.6 mph - N/A   Clear
1:15 AM 41.9 °F 39.0 °F 34.2 °F 74% 29.78 in 10.0 mi NW 4.6 mph - N/A   Clear
1:35 AM 41.4 °F 38.4 °F 33.8 °F 74% 29.78 in 10.0 mi NW 4.6 mph - N/A   Clear
1:55 AM 41.0 °F - 33.4 °F 74% 29.78 in 10.0 mi Calm Calm - N/A   Clear
2:15 AM 41.2 °F - 33.3 °F 73% 29.78 in 10.0 mi Calm Calm - N/A   Clear
2:55 AM 37.9 °F - 35.2 °F 90% 29.77 in 10.0 mi Calm Calm - N/A   Clear
3:15 AM 36.9 °F - 34.0 °F 89% 29.78 in 10.0 mi Calm Calm - N/A   Clear
3:35 AM 37.6 °F - 34.3 °F 88% 29.78 in 10.0 mi Calm Calm - N/A   Clear
3:55 AM 37.4 °F 34.9 °F 34.0 °F 87% 29.79 in 10.0 mi SSW 3.5 mph - N/A   Clear
4:15 AM 37.6 °F 34.0 °F 33.8 °F 86% 29.80 in 10.0 mi SSW 4.6 mph - N/A   Clear
4:35 AM 37.6 °F 35.1 °F 34.2 °F 87% 29.80 in 10.0 mi SSW 3.5 mph - N/A   Clear
4:55 AM 37.4 °F - 34.2 °F 88% 29.81 in 10.0 mi Calm Calm - N/A   Clear
5:15 AM 36.7 °F 34.1 °F 35.2 °F 95% 29.81 in 10.0 mi South 3.5 mph - N/A   Clear
5:35 AM 38.1 °F - 34.5 °F 87% 29.82 in 10.0 mi Calm Calm - N/A   Clear
5:55 AM 37.9 °F - 34.3 °F 87% 29.82 in 10.0 mi Calm Calm - N/A   Clear
6:15 AM 39.0 °F 36.8 °F 34.5 °F 84% 29.82 in 10.0 mi South 3.5 mph - N/A   Clear
6:35 AM 38.5 °F - 34.7 °F 86% 29.83 in 10.0 mi Calm Calm - N/A   Clear
6:55 AM 39.7 °F 37.6 °F 35.1 °F 83% 29.83 in 10.0 mi SW 3.5 mph - N/A   Clear
7:15 AM 42.1 °F 39.2 °F 35.6 °F 78% 29.83 in 10.0 mi SW 4.6 mph - N/A   Clear
7:35 AM 43.2 °F 41.5 °F 36.0 °F 76% 29.83 in 10.0 mi WSW 3.5 mph - N/A   Clear
7:55 AM 44.1 °F 40.8 °F 36.1 °F 74% 29.84 in 10.0 mi WSW 5.8 mph - N/A   Clear
8:15 AM 45.1 °F 42.0 °F 36.3 °F 71% 29.85 in 10.0 mi West 5.8 mph - N/A   Clear
8:35 AM 46.6 °F - 36.3 °F 67% 29.85 in 10.0 mi WSW 6.9 mph - N/A   Clear
8:55 AM 47.5 °F - 36.7 °F 66% 29.86 in 10.0 mi WSW 11.5 mph - N/A   Scattered Clouds
9:15 AM 48.6 °F - 36.7 °F 64% 29.86 in 10.0 mi West 12.7 mph - N/A   Mostly Cloudy
9:35 AM 48.7 °F - 36.0 °F 61% 29.86 in 10.0 mi West 11.5 mph - N/A   Mostly Cloudy
9:55 AM 50.2 °F - 37.0 °F 61% 29.86 in 10.0 mi WSW 6.9 mph - N/A   Scattered Clouds
10:15 AM 50.7 °F - 36.3 °F 58% 29.86 in 10.0 mi SW 10.4 mph - N/A   Scattered Clouds
10:35 AM 50.9 °F - 36.7 °F 58% 29.86 in 10.0 mi WSW 10.4 mph 17.3 mph N/A   Scattered Clouds
10:55 AM 52.2 °F - 37.2 °F 57% 29.86 in 10.0 mi SW 12.7 mph 18.4 mph N/A   Scattered Clouds
11:15 AM 51.6 °F - 37.6 °F 59% 29.86 in 10.0 mi WSW 11.5 mph 17.3 mph N/A   Scattered Clouds
11:35 AM 53.6 °F - 38.1 °F 56% 29.86 in 10.0 mi WSW 15.0 mph 24.2 mph N/A   Scattered Clouds
11:55 AM 54.5 °F - 38.3 °F 54% 29.86 in 10.0 mi SW 18.4 mph 24.2 mph N/A   Mostly Cloudy
12:15 PM 54.0 °F - 37.0 °F 53% 29.86 in 10.0 mi WSW 17.3 mph 27.6 mph N/A   Overcast
12:35 PM 54.5 °F - 37.6 °F 53% 29.86 in 10.0 mi West 17.3 mph 23.0 mph N/A   Mostly Cloudy
12:55 PM 54.1 °F - 36.7 °F 52% 29.86 in 10.0 mi WSW 9.2 mph - N/A   Overcast
1:15 PM 54.9 °F - 37.2 °F 51% 29.86 in 10.0 mi WSW 16.1 mph 24.2 mph N/A   Overcast
1:35 PM 55.4 °F - 36.5 °F 49% 29.87 in 10.0 mi West 17.3 mph 24.2 mph N/A   Overcast
1:55 PM 55.4 °F - 37.0 °F 50% 29.87 in 10.0 mi WSW 10.4 mph 20.7 mph N/A   Mostly Cloudy
2:15 PM 56.5 °F - 38.7 °F 51% 29.87 in 10.0 mi WSW 15.0 mph 21.9 mph N/A   Mostly Cloudy
2:35 PM 57.0 °F - 37.6 °F 48% 29.87 in 10.0 mi WSW 15.0 mph 21.9 mph N/A   Overcast
2:55 PM 57.0 °F - 37.4 °F 48% 29.86 in 10.0 mi West 12.7 mph 19.6 mph N/A   Overcast
3:15 PM 57.4 °F - 37.0 °F 47% 29.86 in 10.0 mi WSW 13.8 mph 25.3 mph N/A   Overcast
3:35 PM 57.4 °F - 36.5 °F 46% 29.86 in 10.0 mi WSW 10.4 mph 20.7 mph N/A   Mostly Cloudy
3:55 PM 58.1 °F - 37.0 °F 45% 29.86 in 10.0 mi WSW 9.2 mph 16.1 mph N/A   Mostly Cloudy
4:15 PM 59.2 °F - 36.1 °F 42% 29.86 in 10.0 mi West 12.7 mph 20.7 mph N/A   Overcast
4:35 PM 59.9 °F - 36.3 °F 41% 29.86 in 10.0 mi West 11.5 mph 17.3 mph N/A   Mostly Cloudy
4:55 PM 60.3 °F - 32.5 °F 35% 29.86 in 10.0 mi WSW 10.4 mph 17.3 mph N/A   Scattered Clouds
5:15 PM 59.9 °F - 32.0 °F 35% 29.86 in 10.0 mi West 9.2 mph 16.1 mph N/A   Clear
5:35 PM 59.9 °F - 31.8 °F 35% 29.87 in 10.0 mi West 8.1 mph 16.1 mph N/A   Clear
5:55 PM 59.9 °F - 31.6 °F 34% 29.88 in 10.0 mi West 8.1 mph 16.1 mph N/A   Clear
6:15 PM 59.2 °F - 31.8 °F 36% 29.88 in 10.0 mi WNW 10.4 mph - N/A   Clear
6:35 PM 58.8 °F - 31.6 °F 36% 29.89 in 10.0 mi NW 9.2 mph - N/A   Clear
6:55 PM 57.2 °F - 32.0 °F 38% 29.90 in 10.0 mi NNW 5.8 mph - N/A   Clear
7:15 PM 55.4 °F - 32.9 °F 43% 29.90 in 10.0 mi NNW 5.8 mph - N/A   Clear
7:35 PM 52.5 °F - 33.8 °F 49% 29.92 in 10.0 mi NNW 11.5 mph - N/A   Clear
7:55 PM 50.9 °F - 34.7 °F 54% 29.93 in 10.0 mi North 8.1 mph - N/A   Clear
8:15 PM 49.5 °F - 34.5 °F 56% 29.93 in 10.0 mi North 6.9 mph - N/A   Clear
8:35 PM 48.7 °F - 33.8 °F 56% 29.95 in 10.0 mi North 8.1 mph - N/A   Clear
8:55 PM 47.8 °F - 33.8 °F 58% 29.96 in 10.0 mi North 8.1 mph - N/A   Clear
9:15 PM 46.9 °F - 33.6 °F 60% 29.97 in 10.0 mi North 6.9 mph - N/A   Clear
9:35 PM 46.6 °F - 33.8 °F 61% 29.99 in 10.0 mi North 6.9 mph - N/A   Clear
9:55 PM 45.5 °F 41.3 °F 33.3 °F 62% 30.00 in 10.0 mi North 8.1 mph - N/A   Clear
10:15 PM 44.6 °F 41.4 °F 32.9 °F 64% 30.01 in 10.0 mi North 5.8 mph - N/A   Clear
10:35 PM 43.9 °F 41.3 °F 32.9 °F 65% 30.02 in 10.0 mi North 4.6 mph - N/A   Clear
10:55 PM 43.0 °F 40.3 °F 32.7 °F 67% 30.03 in 10.0 mi North 4.6 mph - N/A   Clear
11:15 PM 42.4 °F - 32.5 °F 68% 30.03 in 10.0 mi Calm Calm - N/A   Clear
11:35 PM 42.3 °F 40.5 °F 32.0 °F 67% 30.04 in 10.0 mi NNW 3.5 mph - N/A   Clear
11:55 PM 41.5 °F - 32.0 °F 69% 30.05 in 10.0 mi Calm Calm - N/A   Clear